{"data":{"norad_id":66724,"epoch":"2026-05-25T04:21:29.623104Z","epoch_age_seconds":49555,"freshness":"FRESH","line1":"1 66724U 25276BL  26145.18159286  .00005938  00000+0  27507-3 0  9993","line2":"2 66724  97.4187 219.3158 0003262  54.4394 305.7145 15.20465350 26198","mean_motion":15.2046535,"eccentricity":0.0003262,"inclination_deg":97.4187,"raan_deg":219.3158,"arg_perigee_deg":54.4394,"mean_anomaly_deg":305.7145,"bstar":0.00027507,"rev_number":2619,"period_min":94.707847173235,"perigee_km":502.19085093865,"apogee_km":506.68104152877,"semimajor_km":6882.5729462337,"source":"CELESTRAK","updated_at":"2026-05-25T13:38:13.350043Z"}}